Temperature
21 19 19 19 20 20 20 20 20 20 21 20 19 19 18 19 19 19 19 18 18 19 19 18 18 18 18 17 17 17 17 17 16 16 16 16 16 16 15 15 15 15 15 15
19 19 20 21 21 21 20 20 20 20 21 20 19 19 19 19 19 19 18 18 19 19 18 18 18 18 18 17 17 17 17 17 16 16 16 16 16 16 15 15 15 15 15 15
19 20 22 22 21 21 20 20 20 20 20 20 19 18 18 18 19 19 19 19 19 19 18 18 18 18 18 17 17 17 17 17 16 16 16 16 16 15 15 15 15 15 15 14
20 21 21 21 21 21 20 21 21 21 19 18 19 17 17 18 18 18 18 18 19 18 18 18 18 18 18 18 17 17 17 17 16 16 16 16 16 15 15 15 15 15 15 14
20 21 21 21 21 21 20 21 21 20 19 18 18 17 17 17 17 17 18 18 19 19 19 18 18 18 18 18 17 17 17 17 16 16 16 16 16 15 15 15 15 15 14 14
20 21 21 21 21 21 21 20 19 18 17 17 18 17 17 16 17 18 18 18 19 19 19 18 18 18 18 17 17 17 17 17 16 16 16 16 16 15 15 15 15 15 14 14
19 20 21 21 21 20 20 17 17 17 16 16 18 18 17 17 18 18 18 18 18 19 18 18 18 18 17 17 17 17 17 17 16 16 16 16 16 16 15 15 15 15 15 14
18 18 20 20 20 19 19 17 16 17 16 16 17 17 17 18 19 19 19 18 18 18 18 18 18 18 18 17 17 17 17 17 16 16 16 16 16 16 15 15 15 15 15 15
18 18 20 21 21 20 19 17 17 16 17 16 16 17 18 18 18 18 18 18 18 18 18 18 18 18 17 17 17 17 17 17 16 16 16 16 16 16 15 15 15 15 15 15
18 18 19 20 20 20 19 18 16 16 16 16 16 17 16 17 17 17 17 17 18 18 17 18 17 17 17 17 17 17 17 17 16 16 16 16 16 15 15 15 15 15 15 15
18 17 18 19 19 19 19 18 17 15 15 15 16 16 17 17 17 16 17 17 18 18 17 18 17 17 17 17 17 17 17 16 16 16 16 16 16 15 15 15 15 15 15 15
17 15 16 17 18 19 19 18 16 16 16 15 15 15 17 17 17 17 17 18 18 18 18 18 17 17 17 17 16 16 16 16 16 16 16 16 15 15 15 15 15 15 15 15
17 15 15 16 17 18 18 18 17 15 14 14 15 16 17 17 17 17 17 17 17 18 17 17 17 17 17 16 16 16 16 16 16 16 16 15 15 15 15 15 15 15 15 15
16 14 15 16 16 17 17 18 18 16 15 15 15 16 16 16 16 16 17 17 17 17 17 17 17 17 16 16 16 16 16 16 16 15 15 15 15 15 15 15 15 15 14 14
15 15 16 16 17 17 18 18 18 17 16 15 16 16 16 16 16 16 17 17 16 16 16 16 16 16 16 16 16 16 16 16 15 15 15 15 15 15 15 15 14 14 14 14
14 15 15 16 17 17 17 17 17 17 17 16 16 15 15 16 16 16 16 16 16 16 16 16 16 16 16 16 16 16 15 15 15 15 15 15 15 14 14 14 14 14 14 14
14 14 14 14 15 16 16 17 17 17 16 16 15 15 15 15 15 15 15 16 16 16 16 16 16 16 15 15 15 15 15 15 15 15 15 14 14 14 14 14 14 14 14 14
14 13 12 13 15 15 15 16 16 16 16 16 16 15 15 15 15 15 15 15 15 15 15 15 15 15 15 15 15 15 15 15 14 14 14 14 14 14 14 14 14 13 13 13
13 13 12 12 13 14 15 16 16 16 15 15 15 15 15 15 15 14 15 15 15 15 15 15 15 15 15 15 14 14 14 14 14 14 14 14 13 13 13 13 13 13 13 13
13 12 12 12 14 14 15 16 16 15 14 14 14 14 14 14 12 12 14 14 14 14 14 14 14 14 14 14 14 14 13 13 13 13 13 13 13 13 13 13 13 13 12 12
13 12 12 12 12 13 14 15 16 14 13 14 14 14 14 13 13 14 14 14 14 14 14 13 13 13 13 13 13 13 13 13 13 13 13 13 12 12 12 12 12 12 12 12
12 12 11 11 12 13 14 14 13 13 14 14 14 14 14 14 14 14 14 13 13 13 13 13 13 13 12 12 12 12 12 12 12 12 12 12 12 12 12 12 12 12 11 11
11 12 11 11 12 13 14 14 15 15 14 14 14 14 14 13 13 13 13 13 13 12 12 12 12 12 12 12 12 12 12 12 12 12 12 12 12 12 11 11 11 11 11 11
11 12 11 11 12 13 14 14 14 14 14 14 14 13 13 13 13 12 12 12 12 12 12 11 11 11 11 11 11 11 11 11 11 11 11 11 11 11 11 11 11 11 11 10
11 11 10 10 11 12 13 13 14 13 13 13 13 13 13 12 12 12 12 11 11 11 11 11 11 11 11 11 11 11 10 10 10 10 10 10 10 10 10 10 10 10 10 10
10 11 10 10 12 11 12 13 13 13 13 13 12 12 12 12 11 11 11 11 11 10 10 10 10 10 10 10 10 10 10 10 10 10 9 9 9 9 9 10 10 9 9 9
Wind_Speed
1 3 2 5 6 5 3 2 2 4 3 4 5 5 6 7 7 7 8 8 8 8 7 7 7 7 5 5 6 6 6 5 5 4 3 3 2 1 2 3 6 7 7 8
3 2 6 5 3 3 2 1 2 2 2 3 3 4 5 7 9 10 10 10 9 7 5 6 7 7 7 6 6 6 6 6 5 5 4 3 3 2 2 2 3 5 6 7
4 5 3 3 2 2 2 3 4 3 1 1 1 3 3 4 4 6 8 9 10 10 10 8 7 7 7 6 7 7 6 6 5 5 4 3 3 3 2 1 1 1 4 6
2 4 2 2 2 3 3 4 3 2 1 3 1 2 5 4 4 6 7 8 9 9 9 8 8 8 8 8 7 7 6 5 5 6 6 6 4 3 3 3 2 1 4 5
3 1 1 2 4 3 5 4 3 2 2 2 2 2 6 2 4 6 7 9 9 10 10 10 9 9 8 7 7 7 6 5 5 6 7 7 5 3 2 2 3 2 1 3
3 2 2 3 2 2 1 3 4 4 3 2 4 4 4 3 6 5 6 8 8 9 9 9 8 6 6 6 6 7 7 5 5 6 7 7 7 5 4 3 3 2 2 1
4 4 2 1 1 3 4 5 3 4 2 4 3 2 5 6 5 6 8 7 8 8 9 9 7 6 6 7 7 7 7 6 5 6 6 7 7 7 6 5 5 4 3 2
0 4 3 1 3 3 3 7 5 3 3 4 3 2 4 4 1 2 4 5 5 6 8 10 10 9 8 8 8 7 7 6 6 6 6 5 6 5 5 5 5 5 4 4
2 4 4 2 2 5 2 3 6 5 1 2 3 3 4 5 5 4 4 4 5 6 7 9 9 8 7 8 8 9 9 6 6 7 6 5 5 5 5 5 4 4 4 4
3 2 4 3 2 1 4 5 4 3 2 2 3 3 3 3 1 1 3 4 4 4 5 5 6 6 5 5 5 6 7 7 6 6 6 5 5 5 5 5 4 4 4 3
3 2 4 3 1 3 0 1 3 3 4 4 2 5 4 6 4 3 3 3 4 4 5 6 5 5 5 4 4 4 4 5 5 6 6 5 5 5 4 4 5 4 4 3
2 4 2 5 5 3 3 3 5 3 2 3 3 5 5 3 3 3 3 3 3 4 4 5 5 5 4 4 3 3 3 3 4 5 5 5 5 5 5 5 5 5 5 4
3 5 2 6 6 5 1 0 3 4 3 3 3 5 4 1 0 1 2 1 2 3 3 3 3 4 4 4 4 3 3 3 3 3 4 4 4 5 6 6 5 5 5 5
4 4 5 6 5 3 3 3 1 4 3 3 5 5 4 3 1 1 1 1 1 2 3 3 2 3 3 4 4 3 3 3 3 4 4 4 5 6 6 5 5 5 5 5
4 2 2 4 4 2 2 4 2 3 5 6 5 5 6 5 4 3 2 2 2 2 2 2 2 1 1 2 2 3 3 3 3 3 4 5 5 4 4 4 5 4 4 5
3 2 1 3 3 2 3 4 4 4 3 4 3 4 4 3 1 2 2 3 2 1 1 1 2 1 2 3 3 3 3 3 2 3 4 4 3 4 4 4 4 4 4 4
1 3 1 3 5 3 4 4 3 2 2 4 4 5 2 1 2 2 2 2 3 2 2 1 2 3 3 4 3 4 4 3 3 3 3 3 3 4 4 4 4 4 5 4
5 3 3 1 2 4 6 3 2 3 1 1 3 3 3 4 3 2 2 3 2 1 0 1 1 1 2 2 2 2 2 3 3 3 2 3 3 3 3 3 4 4 4 4
6 6 3 2 2 5 5 3 1 2 1 2 1 1 1 2 3 3 1 2 2 1 0 1 1 2 1 1 1 1 1 1 2 3 3 3 3 4 3 4 4 4 4 4
4 5 5 3 2 5 5 4 2 3 1 3 1 2 1 3 2 4 3 0 1 0 0 0 1 1 1 1 1 2 0 1 2 3 4 3 4 4 5 5 4 3 4 4
2 2 3 4 4 5 6 4 2 3 5 3 1 2 2 2 5 4 2 1 0 0 1 1 1 1 1 1 1 1 0 2 4 3 3 3 3 4 5 4 3 3 4 4
4 3 3 3 4 6 4 2 3 5 2 1 1 1 1 1 1 1 0 1 0 0 1 1 1 1 2 1 1 0 2 4 3 2 1 2 3 3 3 3 3 3 3 4
4 6 5 6 6 4 1 3 3 3 2 1 1 0 1 0 1 1 1 1 1 0 0 1 1 1 2 1 0 1 3 3 2 1 2 2 3 3 3 3 3 2 3 4
3 1 3 2 3 2 1 1 1 1 2 1 1 1 1 1 1 1 1 1 1 1 1 0 1 0 2 2 2 2 2 2 1 2 2 2 2 3 3 3 3 3 4 4
5 1 1 3 4 3 3 2 2 1 1 1 1 0 0 0 1 1 1 1 1 1 1 1 1 2 2 2 3 2 1 1 1 1 2 2 2 2 2 2 3 4 5 6
4 5 5 7 7 5 5 4 3 2 1 1 0 1 1 0 1 1 2 2 1 1 1 1 1 2 3 3 3 3 2 0 0 1 2 2 2 2 2 2 2 3 4 5
Wind_Direction
1 77 220 227 197 190 197 195 231 237 217 162 188 202 209 197 190 191 191 190 191 196 194 177 173 167 160 161 153 156 155 156 144 134 129 126 129 121 96 100 112 117 118 121
39 260 237 214 195 164 158 175 256 271 227 168 184 228 220 200 197 193 192 191 190 187 183 181 175 173 171 170 164 162 167 163 159 158 160 161 153 143 132 104 103 121 123 125
197 239 228 187 189 183 229 201 217 220 341 29 95 309 255 244 209 197 196 193 190 186 186 184 175 174 171 172 175 174 173 164 165 155 136 114 86 71 67 86 114 113 128 131
239 258 223 178 209 179 239 236 203 188 69 287 188 265 272 229 212 208 204 198 195 192 186 182 176 175 180 183 177 170 170 165 164 156 151 151 151 158 187 184 177 153 147 144
265 264 183 213 227 197 220 225 205 208 180 299 290 186 284 222 222 227 209 198 198 190 182 181 183 182 183 178 172 171 168 166 164 163 162 158 155 171 173 163 158 160 163 162
251 265 195 218 244 191 173 42 24 47 73 294 251 183 275 242 225 217 207 198 192 185 181 181 183 171 169 167 164 161 162 172 171 166 164 162 164 166 159 162 170 181 189 197
325 321 279 183 42 6 79 79 20 352 4 257 270 182 255 265 243 197 189 193 191 181 177 178 176 171 174 172 169 167 166 174 173 169 173 175 175 174 176 178 182 182 189 203
309 294 277 212 170 190 174 142 160 203 233 280 329 250 268 299 357 139 157 160 165 173 179 181 184 182 183 182 176 175 180 180 175 173 183 184 178 178 186 186 185 192 199 204
183 264 283 244 184 153 152 180 179 155 226 287 304 312 322 3 44 72 100 127 158 174 181 186 187 184 184 184 184 183 183 182 187 187 183 186 185 181 186 187 184 193 199 201
157 261 301 307 45 15 170 161 100 126 179 256 292 284 259 268 252 106 124 151 175 167 160 165 171 173 174 177 183 184 182 183 188 185 185 187 190 188 187 178 185 193 196 191
111 151 310 352 201 249 357 117 122 136 159 166 240 276 247 206 193 171 181 176 176 175 178 178 177 173 169 163 161 166 178 179 185 187 188 191 193 191 184 184 194 196 191 186
93 125 259 272 273 238 186 184 147 154 225 175 179 265 289 204 190 164 178 189 184 177 182 176 169 163 158 161 162 165 165 178 196 191 186 191 188 184 187 194 199 190 190 193
100 105 48 339 340 355 2 174 140 135 135 165 185 256 312 20 37 187 172 202 186 164 157 150 153 165 171 175 179 177 171 180 187 177 177 184 186 188 196 201 198 194 195 195
104 113 165 198 226 263 290 298 148 132 156 207 218 233 285 292 247 258 217 199 161 153 159 155 163 184 186 186 187 186 190 190 179 174 180 194 199 194 196 197 194 193 191 192
92 135 221 236 246 250 267 265 239 198 191 190 219 217 242 242 210 204 188 148 89 74 84 135 160 188 187 196 201 193 197 199 189 179 189 206 206 197 193 190 195 196 190 194
81 133 22 317 302 308 295 275 245 236 213 194 193 248 253 233 152 143 154 149 155 180 163 174 168 182 212 217 215 208 212 212 186 189 208 214 202 200 202 200 193 186 190 192
145 136 111 277 305 353 287 266 232 215 216 177 202 235 237 133 125 166 171 162 175 199 198 213 215 209 222 227 214 212 216 205 191 205 220 208 201 206 211 206 193 193 195 190
165 142 148 204 4 244 250 281 167 144 326 223 182 207 196 184 170 139 135 134 124 102 42 279 280 249 245 233 235 232 212 195 201 206 213 210 202 209 207 198 204 210 203 195
172 153 140 139 217 272 289 298 226 159 297 318 151 136 185 146 71 2 330 130 147 163 193 285 291 270 263 244 205 114 186 202 212 217 221 222 202 200 200 208 214 211 201 205
95 114 131 144 186 237 252 280 279 111 269 313 107 123 129 107 124 260 277 222 110 44 5 290 323 354 333 301 109 93 79 225 236 235 233 233 216 203 209 217 217 211 200 205
60 72 148 179 215 257 264 290 58 147 240 269 197 166 149 183 214 234 250 272 62 113 317 340 25 13 300 302 94 105 73 254 253 251 245 242 234 223 220 220 220 213 206 199
178 173 192 167 200 250 268 98 157 210 234 240 215 200 177 215 216 191 196 251 235 63 0 11 23 330 316 325 108 102 268 266 269 254 241 257 258 244 231 214 220 210 197 200
197 194 191 191 213 243 222 173 198 169 170 207 181 268 139 280 258 229 224 241 230 213 312 3 41 347 334 318 187 241 279 286 285 272 252 244 255 250 230 209 218 226 210 205
282 190 154 226 259 262 259 143 122 145 165 187 154 151 138 236 267 260 223 235 280 270 254 278 83 339 307 308 306 272 282 293 279 256 261 257 256 259 245 224 215 215 217 215
243 209 166 250 261 288 295 238 197 163 110 96 39 24 142 166 288 257 237 239 261 284 291 281 217 235 269 290 296 305 309 318 313 282 281 277 261 251 251 244 229 224 226 214
220 195 194 230 227 208 240 246 225 196 214 207 173 339 350 178 247 259 245 235 229 246 275 287 289 282 282 288 296 304 297 220 163 289 282 277 277 272 251 240 274 267 251 249
Height
1520 1525 1529 1526 1524 1525 1527 1531 1533 1529 1522 1525 1528 1529 1527 1527 1528 1529 1530 1531 1532 1533 1535 1537 1538 1540 1541 1542 1543 1544 1545 1546 1546 1547 1548 1549 1549 1550 1551 1551 1551 1551 1551 1551
1526 1528 1521 1519 1520 1522 1526 1531 1531 1527 1522 1524 1528 1529 1525 1525 1525 1526 1527 1528 1530 1532 1534 1536 1537 1538 1540 1541 1542 1543 1544 1545 1545 1546 1547 1548 1549 1550 1550 1550 1551 1551 1551 1551
1527 1523 1517 1519 1521 1524 1526 1529 1529 1528 1524 1523 1528 1532 1528 1524 1524 1524 1525 1526 1527 1529 1531 1533 1534 1536 1537 1539 1540 1541 1542 1543 1544 1545 1546 1547 1548 1549 1549 1550 1550 1551 1551 1551
1522 1518 1518 1520 1522 1522 1529 1522 1523 1525 1531 1537 1532 1546 1532 1525 1524 1523 1523 1524 1525 1527 1528 1530 1532 1534 1535 1536 1538 1540 1541 1542 1543 1544 1545 1545 1546 1547 1548 1549 1549 1550 1551 1551
1523 1518 1519 1521 1520 1519 1522 1518 1520 1523 1529 1537 1534 1542 1536 1525 1526 1522 1520 1521 1522 1524 1526 1527 1529 1531 1533 1535 1536 1538 1539 1540 1541 1542 1543 1544 1545 1546 1547 1548 1549 1549 1550 1550
1519 1516 1516 1517 1515 1515 1516 1520 1523 1528 1535 1546 1536 1541 1539 1528 1522 1518 1518 1519 1520 1522 1523 1526 1528 1529 1531 1533 1534 1536 1537 1538 1539 1541 1542 1542 1544 1545 1546 1546 1547 1548 1548 1549
1524 1519 1515 1515 1518 1517 1520 1534 1548 1549 1553 1549 1532 1535 1535 1520 1515 1514 1515 1516 1518 1520 1522 1523 1525 1527 1529 1530 1532 1533 1535 1536 1537 1539 1540 1541 1542 1543 1544 1545 1546 1546 1547 1547
1534 1533 1519 1515 1517 1522 1523 1531 1549 1556 1556 1548 1534 1537 1529 1516 1513 1513 1513 1515 1517 1518 1520 1521 1523 1525 1526 1528 1530 1531 1532 1534 1535 1536 1538 1539 1540 1541 1542 1543 1544 1545 1545 1546
1533 1531 1516 1514 1513 1517 1523 1529 1530 1542 1543 1548 1543 1533 1524 1516 1515 1515 1515 1516 1516 1517 1518 1520 1521 1523 1524 1526 1527 1529 1530 1532 1533 1534 1536 1537 1538 1539 1540 1541 1542 1543 1543 1544
1524 1529 1520 1514 1513 1514 1517 1522 1534 1541 1549 1555 1546 1540 1536 1524 1520 1517 1516 1516 1517 1517 1518 1519 1521 1522 1523 1525 1526 1528 1529 1530 1531 1532 1534 1535 1536 1537 1538 1539 1540 1540 1541 1542
1521 1530 1527 1520 1520 1522 1521 1523 1529 1538 1542 1551 1554 1546 1522 1520 1518 1518 1517 1516 1516 1516 1517 1518 1520 1521 1522 1524 1525 1526 1527 1528 1529 1530 1531 1533 1533 1535 1536 1536 1537 1538 1539 1540
1521 1530 1534 1526 1517 1514 1517 1520 1527 1539 1542 1543 1549 1544 1517 1517 1516 1516 1516 1516 1516 1516 1517 1518 1519 1520 1521 1522 1524 1525 1526 1527 1527 1528 1529 1530 1531 1532 1533 1534 1535 1536 1536 1537
1521 1531 1540 1537 1530 1521 1519 1518 1521 1529 1537 1543 1546 1540 1517 1517 1517 1517 1516 1516 1516 1516 1517 1517 1518 1519 1520 1521 1522 1523 1524 1525 1525 1526 1527 1528 1529 1530 1531 1531 1533 1533 1534 1535
1519 1529 1537 1540 1534 1526 1524 1520 1519 1526 1538 1539 1536 1531 1522 1518 1518 1517 1517 1517 1517 1516 1516 1517 1517 1518 1519 1520 1521 1521 1522 1523 1523 1524 1525 1525 1526 1527 1528 1529 1530 1530 1531 1532
1520 1529 1527 1526 1522 1521 1521 1520 1519 1522 1526 1532 1528 1526 1521 1518 1516 1516 1516 1516 1516 1516 1516 1517 1517 1517 1518 1519 1519 1520 1520 1521 1521 1521 1522 1522 1523 1524 1525 1526 1527 1528 1529 1529
1522 1527 1527 1527 1521 1521 1521 1518 1517 1517 1518 1522 1522 1523 1517 1516 1515 1515 1515 1515 1516 1516 1516 1516 1516 1517 1517 1517 1517 1517 1518 1518 1519 1519 1519 1520 1521 1521 1522 1523 1524 1525 1525 1526
1524 1527 1531 1534 1526 1523 1527 1519 1517 1516 1516 1517 1522 1520 1515 1515 1515 1515 1514 1514 1515 1515 1515 1515 1515 1515 1515 1515 1515 1515 1515 1515 1516 1516 1516 1517 1517 1518 1519 1520 1521 1521 1522 1523
1522 1527 1533 1535 1532 1535 1525 1513 1513 1514 1515 1513 1513 1514 1513 1513 1514 1514 1514 1513 1513 1514 1513 1513 1513 1513 1513 1513 1513 1512 1512 1513 1513 1513 1513 1514 1514 1514 1515 1516 1516 1517 1518 1519
1515 1522 1532 1537 1537 1531 1520 1514 1513 1515 1518 1514 1513 1513 1513 1513 1513 1514 1514 1513 1513 1513 1513 1512 1512 1511 1510 1510 1510 1509 1509 1510 1509 1509 1509 1510 1510 1511 1511 1512 1512 1513 1514 1514
1515 1519 1529 1535 1534 1534 1521 1512 1510 1514 1520 1515 1513 1512 1512 1512 1517 1515 1513 1512 1512 1511 1511 1510 1510 1509 1508 1507 1507 1506 1506 1506 1506 1506 1506 1506 1507 1507 1507 1507 1508 1509 1509 1510
1522 1525 1530 1533 1533 1527 1515 1510 1510 1522 1522 1513 1512 1511 1511 1511 1511 1511 1511 1510 1510 1509 1509 1508 1507 1506 1505 1505 1504 1504 1503 1503 1503 1503 1503 1503 1503 1503 1503 1503 1504 1504 1505 1505
1523 1527 1529 1532 1533 1528 1511 1510 1514 1515 1512 1511 1510 1510 1509 1509 1508 1508 1508 1508 1507 1506 1506 1505 1504 1503 1502 1502 1501 1500 1500 1500 1500 1500 1499 1499 1499 1499 1499 1499 1499 1499 1500 1500
1519 1519 1520 1522 1521 1512 1509 1509 1510 1510 1510 1509 1509 1508 1508 1507 1506 1505 1505 1505 1504 1504 1503 1502 1501 1501 1500 1499 1499 1498 1497 1497 1496 1496 1495 1495 1495 1495 1495 1495 1495 1495 1495 1495
1514 1512 1514 1515 1512 1509 1508 1508 1508 1508 1508 1508 1507 1507 1506 1505 1504 1503 1503 1502 1501 1501 1500 1499 1499 1498 1497 1496 1495 1495 1494 1494 1493 1492 1491 1491 1491 1490 1490 1490 1490 1490 1490 1491
1512 1511 1512 1513 1510 1508 1506 1506 1507 1506 1506 1505 1505 1504 1503 1503 1502 1501 1500 1499 1499 1498 1498 1497 1496 1495 1494 1493 1493 1492 1491 1490 1489 1489 1488 1487 1487 1486 1485 1485 1485 1485 1486 1486
1507 1508 1510 1509 1505 1505 1504 1504 1504 1504 1503 1502 1502 1501 1500 1500 1499 1498 1498 1497 1496 1495 1495 1494 1493 1492 1491 1490 1489 1489 1488 1487 1486 1485 1484 1484 1483 1482 1481 1481 1481 1481 1482 1482